Temperature
30 31 31 31 31 31 31 30 30 30 29 29 29 29 28 28 27 26 25 24 22 21 21 20 19 19 18 18 18 18 17 17 17 17 17 17 17 17 17 17 17 17 17 16
29 30 30 30 31 31 31 31 30 30 28 28 28 28 27 27 26 25 24 23 22 21 20 20 19 19 18 18 18 18 17 17 17 17 17 17 17 17 17 17 17 16 16 16
28 29 29 29 30 31 31 31 31 29 28 28 27 27 27 26 26 25 23 22 21 20 20 19 19 18 18 18 18 17 17 17 17 17 17 17 17 17 16 16 16 16 16 16
27 28 27 29 31 32 31 31 31 30 29 28 26 24 24 24 24 23 22 21 20 20 19 19 18 18 18 18 18 17 17 17 17 16 16 16 16 16 16 16 16 16 15 15
26 27 27 29 30 31 30 29 30 29 27 26 24 23 22 22 22 22 21 20 20 19 19 18 18 18 18 17 17 17 17 17 16 16 16 16 16 15 15 15 15 15 15 15
26 25 25 27 29 30 30 27 28 27 26 25 24 24 21 21 20 20 19 19 19 18 18 18 17 17 17 17 17 17 17 16 16 16 16 16 15 15 15 15 15 14 14 14
25 25 25 27 27 28 27 26 26 25 25 24 24 23 20 20 19 19 18 18 18 17 17 17 17 17 17 16 16 16 16 16 16 15 15 15 15 15 14 14 14 14 14 14
25 25 24 26 26 25 23 24 24 24 23 22 21 20 19 19 18 18 18 17 17 17 16 16 16 16 16 16 16 15 15 15 15 15 15 14 14 14 14 14 14 13 13 13
24 24 23 23 23 23 23 23 22 22 22 21 19 19 19 18 17 17 17 16 16 16 15 15 15 15 15 15 15 15 15 14 14 14 14 14 14 13 13 13 13 13 12 12
22 22 22 22 22 22 22 22 22 21 21 20 19 18 18 17 16 16 15 15 15 15 15 14 14 14 14 14 14 14 14 13 13 13 13 13 13 13 13 12 12 12 12 11
21 20 21 21 21 21 21 21 21 21 20 19 18 17 16 16 15 15 14 14 14 14 14 14 14 13 13 13 13 13 13 13 13 13 13 12 12 12 12 12 11 11 11 11
20 20 20 20 20 20 20 20 20 19 18 18 17 16 15 15 14 14 14 13 13 13 13 13 13 13 12 12 12 12 12 12 12 12 11 11 11 11 11 11 11 11 11 10
20 20 19 19 19 19 19 19 18 18 17 17 16 15 14 14 13 13 13 13 13 12 12 12 12 12 12 12 12 12 12 12 11 11 11 11 10 11 10 10 10 10 9 9
18 18 18 18 18 18 18 18 17 17 16 15 15 14 14 13 13 12 12 12 12 12 12 11 11 11 11 11 11 11 11 11 11 11 10 10 10 9 9 9 9 8 8 8
18 18 17 17 17 17 17 16 16 15 15 14 14 13 13 12 12 12 11 11 11 11 11 11 11 11 11 11 11 11 11 11 10 10 10 9 9 9 9 8 8 8 7 7
17 17 17 17 16 16 16 15 15 14 14 13 13 12 12 12 11 11 11 11 11 11 10 10 10 10 10 11 11 10 10 10 10 10 10 9 9 9 9 8 8 7 7 7
16 16 16 16 16 15 15 14 14 13 13 13 12 12 11 11 11 11 10 10 10 10 10 10 10 10 10 10 10 10 10 10 9 9 9 9 9 9 8 8 7 7 7 7
16 15 15 15 15 14 14 14 13 13 12 12 12 11 11 11 10 10 10 10 10 10 10 10 10 10 10 10 10 10 10 10 9 9 9 9 8 8 8 7 7 7 7 7
15 15 14 14 14 13 13 13 12 12 11 11 11 11 10 10 10 10 9 9 9 9 9 9 9 9 9 10 10 10 10 9 9 9 9 8 8 8 8 8 7 7 7 7
14 13 13 13 13 12 12 12 11 11 11 11 10 10 10 9 9 9 9 9 9 9 9 9 9 9 9 10 10 10 10 9 9 9 9 9 8 8 8 8 7 7 7 7
13 12 12 12 12 11 11 11 11 11 10 10 10 10 9 9 9 9 9 9 9 9 9 9 9 9 9 10 10 10 10 9 9 9 9 8 8 8 8 8 7 7 7 7
12 12 11 11 11 11 10 10 10 10 10 10 10 10 9 9 9 9 9 9 9 9 9 9 9 9 9 10 10 10 10 9 9 9 9 8 8 8 8 7 7 7 7 6
11 11 11 10 10 10 10 10 10 10 10 10 9 9 9 9 9 9 9 9 9 9 9 9 9 9 9 10 10 10 9 9 9 9 8 8 8 8 7 7 7 7 6 6
10 10 10 10 10 10 9 9 9 9 9 9 9 9 9 9 9 9 9 9 9 9 9 9 9 9 9 9 9 9 9 9 9 9 8 8 8 7 7 7 7 6 6 6
10 9 9 9 9 9 9 9 9 9 9 9 9 9 9 9 9 9 9 9 8 8 9 9 9 9 9 9 9 9 9 9 9 8 8 8 8 7 7 7 7 6 6 6
9 9 9 9 10 9 9 9 9 9 9 9 9 9 9 9 9 9 8 8 8 8 8 9 9 9 9 9 9 9 9 8 8 8 8 8 8 7 7 7 6 6 6 6
9 9 9 9 10 10 10 10 10 10 10 9 9 9 9 9 9 9 9 9 8 8 8 9 9 9 9 9 9 8 8 8 8 8 8 7 7 7 7 7 6 6 6 6
Wind_Speed
18 14 13 16 18 18 18 15 12 8 7 6 7 8 9 11 12 13 13 12 11 10 8 8 7 6 6 6 5 5 5 5 6 5 5 4 4 4 4 4 5 4 4 3
17 17 15 13 16 18 17 15 13 8 4 5 4 8 9 10 12 12 12 11 11 9 9 7 6 6 5 5 5 5 5 5 5 4 4 4 4 4 4 5 4 4 4 3
14 16 16 16 14 14 14 14 12 10 7 9 9 9 9 8 9 11 11 10 9 8 7 6 5 5 5 4 4 4 4 4 4 4 5 4 5 4 4 4 4 5 4 4
13 14 17 12 12 12 11 9 8 8 9 10 12 10 8 7 8 10 10 9 8 7 7 6 5 5 5 4 4 4 4 4 4 4 4 4 4 4 4 3 4 4 4 4
12 14 14 10 9 10 9 7 5 8 12 13 15 12 8 7 9 9 9 9 7 6 6 5 4 4 4 4 3 3 3 3 3 4 4 5 4 4 5 5 5 5 4 5
11 12 11 7 5 5 6 7 5 9 13 13 12 7 6 7 9 11 10 9 7 7 7 6 4 4 4 4 4 3 3 3 3 4 4 4 5 5 5 5 6 6 6 6
16 13 7 3 3 3 6 4 8 9 10 8 5 7 12 11 10 10 9 9 8 8 7 6 5 6 6 5 4 4 4 5 5 4 5 5 5 5 6 7 8 7 8 8
16 15 6 2 0 0 4 6 10 11 11 12 13 14 14 12 11 10 9 8 9 8 7 6 6 6 6 6 5 6 7 7 7 6 5 5 6 6 6 7 8 7 8 8
4 3 6 7 6 7 7 7 8 10 12 13 13 13 13 11 10 9 9 8 8 8 8 7 7 6 7 5 5 7 8 8 8 9 8 7 7 6 6 5 6 6 6 7
4 8 8 7 6 8 8 8 8 10 11 13 12 12 12 11 10 9 9 8 8 8 8 8 7 7 6 6 7 8 9 8 8 9 10 10 8 7 7 5 6 6 6 7
3 3 5 6 6 7 7 7 8 9 12 13 13 13 12 11 10 9 8 8 8 8 8 8 7 7 7 6 7 9 9 9 9 10 11 12 12 11 10 9 6 6 6 6
3 5 4 5 4 6 8 8 9 12 13 13 13 13 13 11 10 9 9 8 9 9 9 8 8 7 7 6 7 9 9 9 9 9 10 10 12 13 20 16 19 19 15 12
4 7 7 5 5 7 8 8 9 12 13 14 13 13 12 11 10 10 10 10 9 9 9 9 9 8 7 7 7 9 9 9 9 9 9 10 10 11 12 14 19 19 17 15
6 8 6 5 6 7 9 9 11 13 13 14 13 13 12 12 11 11 10 10 10 10 10 10 10 10 8 8 9 10 11 11 10 9 9 9 9 10 10 10 10 10 10 12
3 6 6 7 7 8 9 10 12 13 13 13 13 13 13 12 12 11 11 11 11 11 11 11 11 10 8 9 10 10 10 8 9 9 9 9 9 9 10 11 10 9 7 6
4 7 7 8 9 9 10 11 11 12 12 13 13 12 13 13 13 12 11 11 11 12 11 11 10 9 8 10 10 10 9 12 10 9 9 9 8 9 9 9 9 8 7 6
6 7 8 9 10 10 10 11 12 12 12 13 13 13 14 14 14 13 12 12 12 12 10 10 9 8 8 8 9 9 10 10 10 9 9 9 9 9 8 8 8 8 7 6
5 7 7 9 10 10 11 12 13 13 13 14 14 14 14 13 13 13 12 11 12 12 10 9 9 8 8 8 7 8 8 8 8 8 8 8 8 7 8 8 8 9 7 6
7 8 8 9 10 11 11 12 13 14 14 14 14 13 13 13 12 12 11 12 12 11 9 9 9 8 8 7 6 6 8 9 8 9 8 8 7 7 7 6 7 7 7 6
10 11 11 11 12 13 13 14 14 14 13 14 14 14 14 13 12 11 11 10 9 8 7 7 6 7 7 6 5 6 8 9 9 8 7 7 7 7 6 7 7 6 6 6
13 13 13 12 13 13 13 14 13 14 14 14 14 14 14 12 11 10 10 10 8 7 7 6 5 6 6 4 4 5 7 8 8 7 7 7 7 6 6 6 6 5 5 5
13 14 14 13 14 13 12 12 13 14 14 14 14 14 13 12 11 10 10 8 8 6 4 5 6 7 6 3 4 6 7 7 7 7 7 7 6 6 6 5 5 5 5 5
12 13 14 14 15 14 13 12 13 13 13 13 13 12 11 9 9 9 9 7 7 6 5 6 7 8 7 3 4 7 7 7 6 6 7 6 6 5 5 5 4 4 4 4
12 13 14 15 15 15 14 13 12 11 12 12 11 11 10 9 8 8 9 9 8 8 7 7 7 6 4 2 4 6 6 6 6 6 6 6 5 5 5 4 4 3 3 3
14 14 16 16 14 12 13 12 12 12 12 10 12 10 8 7 8 9 9 9 9 8 8 6 4 3 1 3 5 6 6 5 5 5 6 5 5 5 5 3 3 3 3 2
13 12 11 11 11 10 10 10 10 10 11 10 9 9 8 8 10 9 8 9 10 7 6 5 4 2 3 5 6 6 5 5 5 5 5 4 4 4 4 3 3 2 2 2
13 11 10 10 9 8 9 10 10 10 9 10 10 9 9 9 9 9 9 8 8 7 6 5 4 3 4 5 5 4 4 4 4 4 3 3 3 3 3 3 2 2 1 2
Wind_Direction
253 261 240 216 218 223 229 236 239 234 191 181 164 146 140 138 140 140 140 140 137 139 135 138 139 140 147 148 152 157 165 168 169 169 166 165 164 159 159 162 171 164 161 168
243 251 252 240 221 219 223 228 232 226 188 140 137 138 141 144 146 143 143 141 140 137 135 139 142 148 148 152 149 154 167 169 162 166 164 162 156 151 156 163 165 157 158 162
242 237 242 241 234 225 222 223 223 221 181 158 151 136 140 145 146 139 138 135 133 134 136 141 150 149 149 149 146 146 153 155 150 156 164 163 162 153 156 160 166 164 159 150
244 243 238 237 239 234 226 220 201 162 153 146 125 111 101 113 127 127 129 130 129 132 136 140 139 143 142 151 152 154 154 157 157 158 161 155 149 147 147 133 128 128 126 127
239 240 240 231 229 230 214 204 174 148 127 123 121 109 92 88 101 112 115 114 113 113 109 105 107 117 131 137 134 137 145 151 152 153 152 151 149 144 138 131 122 116 113 107
240 243 239 233 240 269 205 192 146 127 129 135 142 147 138 120 106 98 100 103 100 96 93 88 84 88 93 108 111 113 123 129 132 135 139 142 140 133 126 124 118 105 90 84
237 242 235 289 324 295 223 179 121 121 126 133 128 110 127 123 107 101 100 102 101 94 90 83 78 82 83 72 70 77 78 83 94 103 114 118 118 119 117 113 108 103 94 78
230 238 228 30 345 20 79 72 93 98 101 100 101 111 118 115 111 108 104 102 103 98 88 81 80 83 82 72 62 69 77 81 78 77 86 98 101 104 110 116 113 107 100 90
223 199 95 69 87 93 94 99 96 99 106 112 119 120 117 115 110 104 98 93 96 99 94 85 78 82 84 77 77 81 80 80 82 81 76 78 87 92 103 108 110 111 108 100
98 104 105 98 90 94 96 100 105 110 114 121 123 119 115 110 103 96 91 90 92 94 91 82 75 78 84 89 89 89 89 87 87 86 79 69 67 68 71 74 95 100 99 101
143 122 91 92 93 97 101 104 106 106 112 118 119 116 114 109 103 99 96 91 89 90 91 87 84 82 82 91 101 101 97 93 90 85 84 75 65 54 62 54 65 88 92 96
166 138 133 120 98 113 108 102 105 109 109 112 114 114 113 110 105 102 97 93 90 86 87 86 86 84 83 91 104 109 104 99 97 97 95 94 91 76 59 63 63 66 72 86
97 112 112 115 113 103 104 106 112 114 115 112 109 110 110 108 105 102 99 95 92 88 87 87 87 84 80 81 91 100 105 105 104 105 105 103 101 100 92 71 63 62 65 75
92 99 112 123 118 111 113 111 108 107 108 109 110 110 111 109 106 102 98 95 95 93 92 89 85 82 79 85 91 94 95 95 101 102 103 103 104 106 106 103 93 80 65 67
98 124 138 134 129 124 122 118 114 112 112 111 111 113 113 111 107 102 101 101 98 94 91 89 87 82 83 91 96 99 101 103 103 105 105 106 108 108 106 106 107 107 105 85
143 139 143 140 134 132 130 128 123 120 118 115 113 113 112 109 105 102 102 103 102 96 92 91 89 90 95 99 100 96 96 100 106 111 110 110 110 108 107 106 104 104 104 104
171 164 156 146 141 137 132 128 125 122 119 118 118 116 114 110 106 103 101 99 97 96 96 97 98 98 96 99 104 107 108 109 110 109 108 107 105 104 104 104 103 103 98 87
186 166 153 146 138 129 125 125 126 124 121 119 118 116 116 113 111 108 106 105 100 94 92 95 99 101 100 101 103 108 115 117 111 104 102 101 104 106 110 113 117 117 117 109
140 132 129 127 126 123 121 120 121 120 121 122 120 117 114 112 112 111 110 107 104 100 97 97 98 100 97 92 99 108 108 108 105 102 102 107 107 105 106 109 109 108 110 112
122 122 125 125 124 122 121 121 121 121 122 122 120 117 113 112 114 114 110 101 97 101 105 105 108 101 100 87 79 101 106 107 107 107 108 108 106 106 107 107 106 107 106 103
127 127 128 125 122 120 124 128 128 126 124 123 121 119 117 117 118 117 111 104 97 97 105 104 103 101 95 88 99 108 109 110 113 115 113 109 108 109 108 108 111 110 111 110
129 128 127 126 125 121 121 124 124 123 121 121 121 121 122 122 119 111 105 110 115 109 117 113 98 81 64 58 98 102 106 106 107 108 106 105 108 108 105 104 103 106 107 107
126 125 127 127 124 121 118 119 122 123 122 122 124 127 127 124 124 121 117 114 118 109 99 91 82 67 36 54 96 100 102 105 107 108 108 108 108 108 109 109 105 105 105 107
123 122 123 123 123 122 122 122 122 121 121 120 123 123 120 115 109 107 110 108 101 105 100 93 79 55 13 84 94 99 101 102 106 108 111 112 111 109 106 109 116 120 120 121
125 126 126 126 125 124 122 124 124 124 123 122 121 117 114 113 115 115 115 117 122 119 116 108 85 41 48 95 93 90 86 84 91 97 102 107 113 113 112 113 111 113 115 117
121 121 122 123 123 127 132 132 131 131 130 127 124 120 117 118 120 121 124 130 129 129 127 129 133 144 117 105 103 104 106 106 99 96 95 101 109 109 110 108 103 99 102 103
115 115 118 122 129 135 134 132 129 128 127 126 126 128 131 132 131 132 132 135 139 141 139 144 146 144 127 119 112 110 107 105 106 107 108 103 102 110 122 128 121 114 116 117
Height
1434 1429 1428 1432 1436 1437 1442 1444 1452 1452 1453 1453 1453 1456 1460 1464 1469 1474 1479 1484 1488 1492 1495 1498 1500 1502 1503 1505 1506 1508 1509 1510 1511 1513 1514 1516 1518 1520 1522 1523 1525 1528 1529 1531
1439 1431 1429 1432 1431 1432 1436 1438 1443 1446 1452 1451 1454 1457 1462 1466 1470 1475 1479 1484 1488 1492 1495 1497 1499 1501 1503 1504 1506 1507 1508 1510 1511 1512 1513 1515 1516 1518 1520 1522 1524 1526 1527 1529
1444 1434 1434 1442 1431 1430 1432 1431 1437 1446 1449 1451 1454 1459 1464 1467 1470 1475 1479 1484 1487 1491 1494 1496 1498 1500 1502 1503 1505 1506 1507 1508 1510 1511 1512 1513 1515 1516 1518 1520 1522 1523 1525 1527
1444 1442 1455 1435 1420 1422 1427 1429 1431 1438 1443 1448 1456 1462 1466 1469 1472 1476 1480 1484 1487 1491 1493 1496 1498 1500 1501 1502 1504 1505 1506 1507 1508 1509 1510 1512 1513 1515 1516 1518 1520 1521 1523 1524
1444 1447 1444 1430 1423 1423 1429 1434 1433 1437 1445 1451 1458 1464 1470 1473 1475 1478 1482 1485 1488 1491 1493 1495 1497 1499 1500 1501 1503 1504 1505 1506 1507 1508 1509 1510 1511 1513 1515 1516 1518 1520 1521 1523
1445 1451 1453 1436 1425 1424 1428 1442 1438 1441 1447 1454 1459 1466 1474 1476 1478 1480 1483 1486 1488 1491 1493 1494 1496 1498 1499 1500 1502 1503 1504 1505 1506 1507 1508 1509 1510 1512 1514 1515 1517 1518 1520 1521
1445 1447 1443 1431 1429 1430 1445 1448 1441 1445 1449 1455 1460 1465 1472 1475 1479 1482 1485 1487 1489 1491 1493 1495 1496 1497 1498 1500 1501 1502 1503 1503 1504 1505 1506 1508 1509 1511 1513 1514 1516 1517 1519 1520
1441 1447 1451 1436 1435 1442 1447 1444 1445 1449 1453 1459 1464 1468 1472 1477 1481 1484 1486 1488 1490 1492 1493 1495 1496 1497 1498 1499 1500 1501 1502 1502 1504 1505 1506 1507 1509 1510 1512 1514 1515 1517 1518 1519
1435 1442 1442 1441 1444 1446 1447 1449 1452 1454 1456 1461 1466 1469 1474 1479 1483 1485 1487 1488 1490 1492 1494 1495 1496 1497 1497 1498 1500 1500 1501 1502 1503 1504 1506 1507 1509 1510 1512 1514 1515 1517 1518 1519
1438 1442 1443 1445 1447 1448 1451 1453 1455 1457 1460 1464 1468 1472 1476 1480 1483 1485 1488 1489 1491 1493 1494 1495 1497 1497 1498 1499 1500 1500 1501 1502 1504 1505 1506 1508 1509 1511 1512 1514 1516 1517 1518 1520
1441 1445 1446 1449 1450 1452 1454 1456 1457 1460 1462 1465 1470 1474 1477 1481 1484 1486 1489 1491 1493 1494 1495 1496 1497 1498 1498 1499 1500 1501 1502 1503 1505 1506 1507 1509 1510 1512 1514 1516 1517 1518 1519 1520
1443 1445 1447 1451 1454 1455 1456 1458 1460 1462 1465 1468 1472 1475 1479 1483 1485 1488 1491 1493 1494 1495 1496 1497 1498 1498 1499 1501 1502 1502 1503 1505 1506 1508 1509 1511 1512 1514 1517 1518 1519 1520 1521 1522
1442 1446 1450 1453 1455 1457 1459 1461 1463 1465 1468 1471 1475 1478 1481 1484 1487 1490 1492 1494 1495 1496 1497 1498 1499 1500 1500 1502 1503 1504 1505 1507 1508 1510 1512 1514 1515 1516 1519 1521 1522 1523 1525 1526
1445 1447 1451 1455 1457 1460 1462 1464 1465 1468 1471 1474 1477 1481 1484 1487 1489 1492 1493 1495 1496 1497 1499 1500 1501 1502 1503 1504 1505 1506 1508 1509 1511 1513 1515 1517 1519 1520 1522 1523 1525 1527 1529 1530
1448 1451 1454 1457 1460 1462 1464 1466 1468 1471 1474 1477 1480 1483 1486 1489 1491 1493 1495 1497 1498 1500 1501 1502 1503 1504 1506 1507 1507 1509 1510 1512 1514 1516 1518 1520 1522 1524 1526 1527 1529 1531 1533 1534
1451 1453 1455 1457 1460 1463 1465 1468 1470 1473 1477 1480 1483 1486 1489 1491 1493 1495 1498 1499 1500 1502 1503 1505 1506 1507 1509 1510 1511 1512 1514 1516 1518 1520 1522 1524 1526 1528 1530 1531 1533 1535 1537 1538
1450 1453 1455 1458 1460 1463 1466 1469 1472 1475 1479 1482 1485 1488 1491 1493 1495 1498 1500 1502 1503 1505 1507 1508 1510 1511 1513 1514 1515 1517 1518 1520 1522 1524 1526 1528 1530 1531 1533 1535 1537 1539 1540 1542
1451 1453 1456 1458 1461 1464 1468 1471 1475 1478 1481 1485 1488 1491 1493 1496 1498 1501 1503 1505 1507 1508 1511 1512 1514 1516 1517 1519 1520 1521 1523 1525 1526 1528 1529 1531 1533 1535 1537 1539 1540 1542 1543 1545
1452 1454 1457 1460 1463 1466 1469 1473 1477 1480 1484 1487 1490 1493 1496 1499 1501 1504 1506 1508 1510 1512 1515 1517 1519 1520 1521 1523 1524 1526 1527 1529 1530 1532 1533 1535 1537 1539 1541 1543 1544 1545 1546 1547
1453 1456 1459 1463 1466 1469 1472 1476 1479 1483 1486 1490 1493 1496 1499 1502 1505 1508 1510 1512 1514 1517 1519 1521 1523 1524 1526 1527 1528 1530 1531 1532 1534 1536 1537 1539 1541 1542 1544 1545 1547 1548 1549 1550
1455 1458 1461 1465 1469 1472 1476 1479 1482 1486 1489 1493 1496 1499 1502 1506 1509 1512 1514 1515 1518 1520 1523 1525 1526 1528 1529 1530 1532 1533 1534 1536 1537 1539 1541 1542 1544 1545 1547 1548 1549 1550 1551 1552
1457 1461 1464 1468 1471 1475 1479 1482 1486 1489 1492 1496 1500 1503 1506 1509 1513 1515 1517 1519 1522 1524 1526 1528 1529 1531 1532 1534 1535 1536 1538 1539 1541 1542 1543 1545 1546 1548 1549 1550 1551 1551 1552 1553
1460 1463 1467 1470 1474 1478 1482 1486 1489 1493 1496 1500 1503 1507 1510 1513 1515 1518 1520 1523 1525 1527 1529 1530 1532 1534 1535 1536 1538 1539 1541 1542 1543 1544 1545 1547 1548 1549 1550 1551 1552 1552 1553 1554
1463 1467 1471 1474 1478 1482 1486 1490 1494 1497 1500 1504 1507 1510 1513 1516 1519 1521 1523 1525 1527 1529 1531 1532 1534 1536 1537 1539 1541 1542 1543 1544 1545 1546 1547 1548 1549 1550 1551 1552 1552 1553 1554 1554
1467 1471 1475 1479 1482 1486 1490 1494 1497 1501 1505 1508 1512 1514 1517 1519 1522 1524 1526 1528 1530 1532 1534 1535 1537 1538 1540 1541 1543 1544 1545 1546 1547 1548 1549 1549 1550 1551 1552 1552 1553 1553 1554 1554
1471 1475 1479 1483 1486 1490 1494 1498 1501 1505 1508 1512 1515 1518 1520 1523 1525 1527 1529 1531 1533 1535 1536 1538 1539 1541 1542 1543 1544 1545 1546 1547 1548 1549 1550 1551 1551 1552 1552 1553 1553 1554 1554 1554
1476 1480 1484 1488 1492 1495 1499 1502 1505 1509 1512 1515 1517 1521 1523 1526 1528 1530 1532 1534 1535 1537 1539 1540 1541 1543 1544 1545 1546 1547 1548 1549 1549 1550 1551 1551 1552 1552 1552 1553 1553 1554 1554 1554